Simultaneous Nadir Overpasses (SNOs) Predictions

Prediction of SNOs between GOES-17 and NPP Satellite Orbit:

Table of predicted SNOs for the next 14.0 days since TLE Epoch: 8/31/2024
Index Date Time (GOES-17) GOES-17 Lat,Lon NPP Lat,Lon Distance(km) Time Diff (sec)
1 08/31/2024 08:33:17 -0.01,-104.69 0.47,-106.72 231.80 80
2 09/01/2024 08:11:51 -0.01,-104.69 -0.54,-102.19 284.62 80
3 09/02/2024 20:33:46 0.01,-104.70 -0.64,-107.49 317.63 80
4 09/03/2024 20:17:41 0.01,-104.71 0.38,-102.95 199.41 80
5 09/05/2024 08:39:27 -0.01,-104.69 0.78,-108.22 401.84 80
6 09/06/2024 08:18:02 -0.01,-104.69 -0.25,-103.69 114.93 80
7 09/07/2024 20:39:56 0.01,-104.71 -0.96,-108.98 487.60 80
8 09/08/2024 20:23:51 0.01,-104.71 0.08,-104.45 29.33 80
9 09/11/2024 08:26:50 -0.02,-104.69 0.07,-105.18 55.45 80
10 09/12/2024 08:05:24 -0.02,-104.68 -0.92,-100.64 460.90 80
11 09/13/2024 20:27:18 0.03,-104.69 -0.25,-105.93 142.23 80
